sat.trackr.live / text

‹ back to catalog

TIANHUI 7

NORAD 67300 · 2025-314A

PAYLOAD ACTIVE UNKNOWN

§ Identity

Operator
Country
PRC
Launch date
2025-12-30
Launch site
JSC
Launch vehicle
Mass (kg)
RCS (m²)

External: N2YO · Heavens-Above · Gunter

§ Orbital elements

Epoch: 2026-09-20T14:46:12.821088Z

Period
94.39 min
Inclination
97.3947°
Eccentricity
0.0005672
Mean motion
15.25533370 rev/d
Perigee alt
485.3 km
Apogee alt
493.1 km
Semi-major
6,867.3 km
B*
1.4521e-4
RAAN
338.2156°
Arg perigee
67.4501°
Mean anomaly
292.7337°
Rev number
4,033

§ Raw data

TIANHUI 71 67300U 25314A   26263.61542617  .00003610  00000+0  14521-3 0  99972 67300  97.3947 338.2156 0005672  67.4501 292.7337 15.25533370 40335

JSON: /api/v1/satellites/67300 · /tle

For live sub-satellite position, see the globe view (requires WebGL).

§ Visibility from observer

Set your observer location to see the next 7 days of passes ≥ 10°. The values pass through the URL so the page stays shareable.

No JS? Fill the form by hand. The geolocation button needs JavaScript.